Denton, TX

12:28 AM CDT on April 30, 2017 (GMT -0500)
Denton Municipal

Weather History for KDTO - February, 2013

Change the Weather History Date:

Thursday, February 21, 2013

  Actual Average Record
Temperature  
Mean Temperature 51 °F -  
Max Temperature 63 °F 57 °F 79 °F (2005)
Min Temperature 39 °F 37 °F 28 °F (2014)
Degree Days  
Heating Degree Days 14    
Growing Degree Days 1 (Base 50)    
Moisture  
Dew Point 38 °F    
Average Humidity 75    
Maximum Humidity 93    
Minimum Humidity 30    
Precipitation  
Precipitation 0.27 in - - ()
Sea Level Pressure  
Sea Level Pressure 29.74 in    
Wind  
Wind Speed 13 mph (NW)    
Max Wind Speed 25 mph    
Max Gust Speed 34 mph    
Visibility 9 miles    
Events Rain    
Averages and records for this station are not official NWS values.
T = Trace of Precipitation, MM = Missing Value Source: NWS Daily Summary

Daily Weather History Graph

Daily Weather History Graph

Search for Another Location

Airport or City:

Trip Planner

Search our weather history database for the weather conditions in past years. The results will help you decide how hot, cold, wet, or windy it might be!

Date:

Astronomy

Feb. 21, 2013 Rise Set
Actual Time 7:05 AM CST 6:19 PM CST
Civil Twilight 6:40 AM CST 6:44 PM CST
Nautical Twilight 6:11 AM CST 7:13 PM CST
Astronomical Twilight 5:43 AM CST 7:42 PM CST
Moon 2:43 PM CST (2/21) 4:03 AM CST (2/21)
Length of Visible Light 12h 03m
Length of Day
11h 13m
Waxing Gibbous, 84% of the Moon is Illuminated
Feb 21
Waxing Gibbous
Feb 25
Full
Mar 4
Last Quarter
Mar 11
New
Mar 19
First Quarter

Hourly Weather History & Observations

Time (CST) Temp. Windchill Dew Point Humidity Pressure Visibility Wind Dir Wind Speed Gust Speed Precip Events Conditions
12:53 AM 39.0 °F 30.6 °F 33.1 °F 79% 29.77 in 10.0 mi East 15.0 mph 23.0 mph N/A   Overcast
1:53 AM 39.0 °F 32.8 °F 34.0 °F 82% 29.79 in 9.0 mi East 9.2 mph - 0.00 in Rain Light Rain
2:53 AM 39.0 °F 31.4 °F 35.1 °F 86% 29.74 in 10.0 mi East 12.7 mph - 0.02 in Rain Light Rain
3:53 AM 39.0 °F 31.4 °F 35.1 °F 86% 29.69 in 10.0 mi East 12.7 mph - 0.00 in   Overcast
4:53 AM 41.0 °F 33.1 °F 36.0 °F 82% 29.65 in 10.0 mi ESE 15.0 mph - N/A   Overcast
5:53 AM 44.1 °F 37.1 °F 39.0 °F 82% 29.64 in 10.0 mi SE 15.0 mph - N/A   Overcast
6:26 AM 44.6 °F 36.1 °F 39.2 °F 81% 29.60 in 10.0 mi SE 21.9 mph 31.1 mph N/A   Overcast
6:53 AM 44.1 °F 36.8 °F 39.9 °F 85% 29.60 in 10.0 mi SE 16.1 mph 28.8 mph N/A   Overcast
7:40 AM 42.8 °F 35.4 °F 41.0 °F 93% 29.74 in 2.5 mi WNW 15.0 mph 27.6 mph 0.05 in Rain Heavy Rain
7:53 AM 42.1 °F 34.5 °F 39.9 °F 92% 29.73 in 2.5 mi NW 15.0 mph 23.0 mph 0.21 in Rain Heavy Rain
8:00 AM 41.0 °F 34.3 °F 39.2 °F 93% 29.74 in 3.0 mi NW 11.5 mph - 0.02 in Rain Rain
8:03 AM 41.0 °F 34.7 °F 39.2 °F 93% 29.74 in 5.0 mi NNW 10.4 mph - 0.03 in Rain Light Rain
8:53 AM 42.1 °F 36.1 °F 39.9 °F 92% 29.73 in 10.0 mi NNE 10.4 mph - 0.04 in   Overcast
9:25 AM 42.8 °F 37.0 °F 41.0 °F 93% 29.72 in 10.0 mi NE 10.4 mph - N/A   Mostly Cloudy
9:48 AM 44.6 °F 40.7 °F 42.8 °F 93% 29.71 in 10.0 mi ENE 6.9 mph - N/A   Mostly Cloudy
9:53 AM 44.1 °F 40.1 °F 42.1 °F 93% 29.72 in 10.0 mi East 6.9 mph - N/A   Mostly Cloudy
11:37 AM 48.2 °F - 44.6 °F 87% 29.74 in 10.0 mi SSW 5.8 mph - N/A   Overcast
11:45 AM 48.2 °F - 44.6 °F 87% 29.74 in 10.0 mi Variable 4.6 mph - N/A   Overcast
11:53 AM 48.9 °F - 45.0 °F 86% 29.73 in 10.0 mi SSW 6.9 mph - N/A   Overcast
12:42 PM 55.4 °F - 44.6 °F 67% 29.71 in 10.0 mi WSW 12.7 mph 21.9 mph N/A   Partly Cloudy
12:53 PM 55.0 °F - 44.1 °F 67% 29.70 in 10.0 mi West 16.1 mph 23.0 mph N/A   Clear
1:53 PM 55.9 °F - 37.0 °F 49% 29.68 in 10.0 mi West 16.1 mph 26.5 mph N/A   Clear
2:53 PM 60.1 °F - 41.0 °F 49% 29.67 in 10.0 mi West 18.4 mph 24.2 mph N/A   Clear
3:53 PM 63.0 °F - 30.9 °F 30% 29.67 in 10.0 mi West 25.3 mph 34.5 mph N/A   Clear
4:53 PM 63.0 °F - 32.0 °F 31% 29.70 in 10.0 mi West 17.3 mph 27.6 mph N/A   Clear
5:53 PM 60.1 °F - 34.0 °F 38% 29.72 in 10.0 mi West 11.5 mph - N/A   Clear
6:53 PM 55.9 °F - 36.0 °F 47% 29.77 in 10.0 mi SW 4.6 mph - N/A   Clear
7:53 PM 53.1 °F - 36.0 °F 52% 29.81 in 10.0 mi WNW 8.1 mph - N/A   Clear
8:20 PM 50.0 °F - 39.2 °F 66% 29.85 in 10.0 mi NNW 21.9 mph - N/A   Clear
8:53 PM 48.0 °F - 37.9 °F 68% 29.88 in 10.0 mi NNW 17.3 mph 24.2 mph N/A   Clear
9:53 PM 45.0 °F 39.3 °F 37.0 °F 74% 29.93 in 10.0 mi North 11.5 mph - N/A   Clear
10:53 PM 42.1 °F 36.6 °F 36.0 °F 79% 29.95 in 10.0 mi NNW 9.2 mph - N/A   Clear
11:53 PM 39.9 °F 31.4 °F 34.0 °F 79% 29.94 in 10.0 mi North 16.1 mph - N/A   Clear